Simultaneous Nadir Overpasses (SNOs) Predictions

Prediction of SNOs between METOP-B and TERRA Satellite Orbit:

Table of predicted SNOs for the next 14.0 days since TLE Epoch: 1/3/2015
Index Date (METOP-B) Time (METOP-B) Lat,Lon (METOP-B) SZA (METOP-B ) Date (TERRA) Time (TERRA) Lat,Lon (TERRA) SZA (TERRA ) Distance(km) Time Diff (sec)
1 01/03/2015 04:30:40 -81.27, -20.96 73.41 01/03/2015 04:31:13 -81.27, -21.07 73.41 1.97 33
2 01/03/2015 05:21:20 81.28, 146.61 106.62 01/03/2015 05:20:39 81.28, 146.72 106.61 2.03 41
3 01/06/2015 00:05:05 -81.27, 45.19 73.77 01/06/2015 00:05:37 -81.28, 45.38 73.73 3.22 32
4 01/06/2015 00:55:44 81.28,-146.86 106.30 01/06/2015 00:55:03 81.28,-146.83 106.29 0.68 41
5 01/08/2015 19:39:29 -81.27, 111.67 74.15 01/08/2015 19:40:07 -81.27, 111.67 74.13 0.15 38
6 01/0
